* Astronomy

Members Login
Username 
 
Password 
    Remember Me  
Post Info TOPIC: Asteroid 2012 BJ14


L

Posts: 131433
Date:
Asteroid 2012 BJ14
Permalink  
 


rbital elements:
2012 BJ14                                                Earth MOID = 0.0009 AU
Epoch 2012 Jan. 14.0 TT = JDT 2455940.5                 MPC
M  14.87974              (2000.0)            P               Q
n   0.33657441     Peri.   84.71167     +0.91764084     -0.38493869
a   2.0468310      Node   297.89658     +0.30575826     +0.84263245
e   0.7412297      Incl.    6.41725     +0.25386447     +0.37655380
P   2.93           H   24.5           G   0.15
From 21 observations 2012 Jan. 20-21.

MPEC 2012 - B45



__________________
Page 1 of 1  sorted by
 
Quick Reply

Please log in to post quick replies.



Create your own FREE Forum
Report Abuse
Powered by ActiveBoard